Regional Weather Roundup
Issued by NWS Albany, NY

Home | Current Version | Previous Version | Text Only | Print | Product List | Glossary On
Versions: 1 2 3 4 5 6 7 8 9 10 11 12 13 14 15 16 17 18 19 20 21 22 23 24 25 26 27 28 29 30 31 32 33 34 35 36 37 38 39 40 41 42 43 44 45 46 47 48 49 50
000
ASUS41 KALY 311110
RWRALY

NEW YORK STATE HOURLY WEATHER ROUNDUP
NATIONAL WEATHER SERVICE ALBANY NY
700 AM EDT SUN AUG 31 2014

NOTE: "FAIR" INDICATES FEW OR NO CLOUDS BELOW 12,000 FEET WITH NO
SIGNIFICANT WEATHER AND/OR NO OBSTRUCTIONS TO VISIBILITY.

NYZ032-033-038>043-046>054-057>066-NYZ062>081-311200-
EAST


CITY           SKY/WX    TMP DP  RH WIND       PRES   REMARKS
ALBANY         MOCLDY    70  63  78 S9        30.04S
GLENS FALLS    CLOUDY    68  63  84 S3        30.04S
POUGHKEEPSIE   CLOUDY    72  63  73 CALM      30.09R
NEWBURGH       CLOUDY    70  64  83 CALM      30.12S
MONTGOMERY     CLOUDY    69  64  84 CALM      30.10S
WHITE PLAINS   MOCLDY    71  66  84 CALM      30.12S
ISLIP          CLOUDY    73  67  81 S6        30.11S
NEW YORK CITY  CLOUDY    74  65  73 S8        30.11R
CENTRAL PARK   CLOUDY    74  65  73 VRB3      30.14S
$$

NYZ005>009-017-018-044>046-055-056-311200-
CENTRAL


CITY           SKY/WX    TMP DP  RH WIND       PRES   REMARKS
FULTON         LGT RAIN  71  68  90 S9        29.99R FOG
SYRACUSE       LGT RAIN  73  68  84 S9        30.00R
ROME           LGT RAIN  70  67  90 E7        30.03R
ELMIRA         CLOUDY    70  68  93 CALM      30.04R FOG
BINGHAMTON     CLOUDY    69  66  90 S7        30.09R FOG
MONTICELLO     CLOUDY    66  63  88 S6        30.14R
$$

NYZ026>034-041>043-311200-
NORTH


CITY           SKY/WX    TMP DP  RH WIND       PRES   REMARKS
WATERTOWN      CLOUDY    74  65  73 S9G21     29.93R
FORT DRUM      NOT AVBL
MASSENA        CLOUDY    71  68  90 SW10      29.90R
SARANAC LAKE   CLOUDY    67  64  90 SW10      29.99S
PLATTSBURGH    CLOUDY    66  65  96 CALM      29.94S
$$

NYZ001>004-010>016-019>021-311200-
WEST


CITY           SKY/WX    TMP DP  RH WIND       PRES   REMARKS
NIAGARA FALLS  CLOUDY    74  66  76 SW14      29.94R
BUFFALO        LGT RAIN  72  68  87 S10       29.96R
DUNKIRK        LGT RAIN  72  67  84 S16G24    29.98R
JAMESTOWN      CLOUDY    66  64  94 S8        30.05R
WELLSVILLE     LGT RAIN  69  66  90 S7        30.10R
ROCHESTER      LGT RAIN  72  70  93 S9        29.97S FOG
PENN YAN       LGT RAIN  71  68  90 SW3       30.03S FOG
$$

             KEY
       WCI = WIND CHILL INDEX
       VSB = VISIBILITY
       HX  = HEAT INDEX
$$


USA.gov is the U.S. government's official web portal to all federal, state and local government web resources and services.